[[{"header":{"parameterUnit":"m.s-1","parameterCategory":1,"la1":30.2991,"la2":30.254,"lo1":-89.0895,"lo2":-89.0444,"dy":0.0017,"dx":0.0017,"nx":28,"ny":28,"refTime":"2023-06-21T21:00:00:Z","depth":0,"parameterNumber":2,"parameterNumberName":"U-component_of_WINDS"},"data":[0,0,0,0,0,0,0,0,0,0,0,0,0,0,0,0,0,0,0,0,0,0,0,0,0,0,0,0,0,0,0,0,0,0,0,0,0,0,0,0,0,0,0,0,0,0,0,0,0,0,0,0,0,0,0,0,0,0,0.9874,0.9875,0,1.0004,1.0005,1.0007,1.0047,1.0047,1.0046,1.0045,1.0183,1.0187,1.0192,0,0,0,0,0,0,0,0,0,0,0,0,0,0.9666,0.9669,0.9874,0.9875,0.9877,1.0004,1.0005,1.0007,1.0047,1.0046,1.0046,1.0045,1.0182,1.0187,1.0192,0,0,0,0,0,0,0,0,0,0,0,0,0,0.9772,0.967,0.9874,0.9912,0.9917,1.0003,1.0005,1.0008,1.0047,1.0046,1.0046,1.0045,1.018,1.0186,1.0193,1.0251,0,0,1.0212,1.0215,0,0,0,0,0,0,0,0,0.9766,0.978,0.9905,0.991,0.9915,1.0008,0.9983,1.0089,1.0048,0.9998,1.0045,1.0044,1.0126,1.0137,1.0163,1.0258,1.0264,1.0213,1.0217,1.0219,1.0221,0,0,0,0,0,0,0,0.9758,0.9774,0.9925,0.9907,0.9913,0.9925,0.9939,1.0003,1.0066,1.0002,1.0006,1.002,1.0129,1.0157,1.0167,1.0266,1.0213,1.0218,1.0222,1.0225,1.0416,1.0417,0,0,0,0,0,0,0.9744,0.9768,0.9921,0.9929,0.9836,0.9929,0.9945,0.9979,1.0065,1.0077,1.0021,1.0021,1.0147,1.0159,1.0172,1.0247,1.0219,1.0225,1.0229,1.0415,1.0416,1.0417,0,0,0,0,0,0,0.9739,0.9757,0.9916,0.9849,0.9871,0.9934,0.9972,0.9982,1.0011,1.0079,1.0091,1.0038,1.0146,1.0163,1.0231,1.0252,1.0228,1.0234,1.0413,1.0415,1.0417,1.0396,0,0,0,0,0,0,0.9733,0.9755,0.9777,0.985,0.9874,0.9971,0.9973,0.9986,1.0021,1.0023,1.0098,1.011,1.0147,1.0221,1.0237,1.0261,1.0239,1.0411,1.0414,1.0416,1.0396,1.0397,1.0399,0,0,0,0,0,0.9725,0.9767,0.9778,0.9796,0.9902,0.9972,0.9987,1.0027,1.0023,1.0046,1.009,1.0108,1.0247,1.0228,1.0246,1.0272,1.041,1.0413,1.0416,1.0395,1.0397,1.0399,0,0,0,0,0,0,0.9696,0.9777,0.979,0.9856,0.9907,0.9979,1.0009,1.0028,1.0082,1.0082,1.0131,1.0148,1.0213,1.0249,1.0226,1.0334,1.033,1.0336,1.0307,1.031,1.0312,1.0302,1.0244,0,0,0,0,0,0.9697,0.9746,0.9815,0.9866,0.9891,0.9946,0.9978,1.0004,1.006,1.0082,1.0131,1.0186,1.0242,1.0278,1.0333,1.0401,1.0419,1.0428,1.0429,1.043,1.0436,1.0475,1.048,1.0427,1.0426,1.0426,0,0,0.97,0.975,0.9779,0.9862,0.9904,0.9955,0.9964,1.0017,1.0056,1.0091,1.0158,1.0196,1.026,1.0328,1.0361,1.0361,1.0455,1.0434,1.0434,1.0439,1.0479,1.0484,1.0488,1.0428,1.0428,1.0428,0,0,0.9732,0.9774,0.9822,0.9864,0.9928,0.9964,0.9976,1.0046,1.0072,1.0139,1.0167,1.0215,1.031,1.0355,1.039,1.0439,1.0458,1.0456,1.0465,1.0503,1.0508,1.0512,1.053,1.0536,1.0461,1.0461,1.0461,0,0.9728,0.9804,0.9845,0.9897,0.9933,0.9965,1.0015,1.0055,1.0134,1.016,1.0158,1.0279,1.0324,1.0404,1.0416,1.0443,1.0459,1.0448,1.0503,1.0508,1.0512,1.053,1.0537,1.0461,1.0461,1.0461,1.0461,0,0.9797,0.9849,0.9881,0.9955,0.9995,1.0046,1.0095,1.0131,1.0154,1.0191,1.0261,1.0316,1.0384,1.0405,1.0429,1.0488,1.0486,1.0493,1.049,1.0516,1.0534,1.0541,1.046,1.046,1.046,1.046,0,0,0.9813,0.9909,0.992,0.9955,1.0028,1.007,1.0123,1.0188,1.0218,1.0272,1.0319,1.0399,1.0406,1.0446,1.0475,1.0508,1.0545,1.0512,1.0514,1.0517,1.0615,1.061,1.0617,1.0557,1.0559,1.056,1.061,0,0.9855,0.9948,0.9987,1.0064,1.0114,1.0146,1.0192,1.0243,1.0279,1.0328,1.0369,1.0425,1.0429,1.0454,1.0488,1.0533,1.0565,1.053,1.0603,1.0605,1.0586,1.0626,1.062,1.0664,1.0617,1.0618,1.0619,0,0.9915,0.9968,1.0049,1.0117,1.014,1.018,1.0243,1.0289,1.0348,1.0372,1.0417,1.0444,1.0503,1.0495,1.0578,1.0553,1.0585,1.0612,1.0614,1.0623,1.0614,1.0637,1.068,1.0686,1.0631,1.063,1.0629,0,0.992,1.0012,1.0072,1.0101,1.0181,1.0209,1.0244,1.0302,1.0339,1.0394,1.0419,1.0481,1.0515,1.0564,1.0608,1.0598,1.0686,1.0682,1.0709,1.0708,1.0727,1.0725,1.0776,1.0746,1.0746,1.0746,1.0746,0,0.9962,1.0011,1.0075,1.0113,1.0169,1.0213,1.0268,1.0306,1.0357,1.0404,1.0436,1.0479,1.0534,1.0585,1.062,1.0684,1.0699,1.0721,1.073,1.0718,1.0716,1.0741,1.0739,1.0748,1.0747,1.0747,1.0747,0,0.9976,1.0022,1.009,1.016,1.0179,1.0218,1.0279,1.0317,1.0355,1.0413,1.043,1.0489,1.0551,1.0599,1.068,1.0704,1.0771,1.0781,1.075,1.0755,1.0779,1.0776,1.0848,1.0861,1.0822,1.0822,1.0823,0,1.0,1.0038,1.0113,1.0145,1.018,1.0232,1.027,1.0315,1.0353,1.0424,1.0454,1.0518,1.0571,1.0668,1.072,1.0782,1.0794,1.0815,1.0804,1.0791,1.0795,1.0792,1.0797,1.0816,1.0817,1.0817,1.0817,0,1.0038,1.0059,1.0111,1.0171,1.0214,1.0264,1.0315,1.034,1.0395,1.0437,1.0499,1.054,1.0623,1.0686,1.0754,1.0792,1.0814,1.082,1.0829,1.0818,1.0799,1.0811,1.0755,1.0818,1.0818,1.0818,1.0818,1.0818,1.0059,1.0095,1.0152,1.021,1.0252,1.0299,1.0338,1.0381,1.0433,1.0503,1.0527,1.0592,1.0651,1.0744,1.0783,1.0835,1.0837,1.0851,1.0854,1.0857,1.0856,1.079,1.0848,1.0848,1.0848,1.0848,1.0848,0,1.0099,1.0138,1.019,1.0259,1.0305,1.032,1.0377,1.0414,1.047,1.0523,1.0575,1.0648,1.0709,1.0766,1.083,1.0862,1.0874,1.0877,1.0876,1.0884,1.0851,1.0836,1.0867,1.0867,1.0867,1.0867,1.0867,1.0866,1.0125,1.0187,1.0214,1.0298,1.0337,1.0399,1.0431,1.0475,1.0517,1.0596,1.0647,1.0683,1.0738,1.0807,1.0865,1.088,1.0903,1.0904,1.0922,1.0889,1.0887,1.0884,1.0871,1.0908,1.0908,1.0951,1.0952,1.0952]},{"header":{"parameterUnit":"m.s-1","parameterCategory":1,"la1":30.2991,"la2":30.254,"lo1":-89.0895,"lo2":-89.0444,"dy":0.0017,"dx":0.0017,"nx":28,"ny":28,"refTime":"2023-06-21T21:00:00:Z","depth":0,"parameterNumber":3,"parameterNumberName":"V-component_of_WINDS"},"data":[0,0,0,0,0,0,0,0,0,0,0,0,0,0,0,0,0,0,0,0,0,0,0,0,0,0,0,0,0,0,0,0,0,0,0,0,0,0,0,0,0,0,0,0,0,0,0,0,0,0,0,0,0,0,0,0,0,0,2.6743,2.6743,0,2.6733,2.6733,2.6733,2.6721,2.6721,2.672,2.672,2.671,2.671,2.6709,0,0,0,0,0,0,0,0,0,0,0,0,0,2.675,2.675,2.6743,2.6743,2.6743,2.6733,2.6733,2.6733,2.6721,2.6721,2.672,2.672,2.671,2.671,2.6709,0,0,0,0,0,0,0,0,0,0,0,0,0,2.6745,2.675,2.6743,2.6735,2.6735,2.6733,2.6733,2.6733,2.6721,2.6721,2.672,2.672,2.671,2.671,2.6709,2.6714,0,0,2.6709,2.6709,0,0,0,0,0,0,0,0,2.6745,2.6744,2.6737,2.6736,2.6735,2.6728,2.6732,2.6727,2.6721,2.6726,2.672,2.672,2.6716,2.6715,2.6714,2.6714,2.6713,2.6709,2.6709,2.6709,2.6709,0,0,0,0,0,0,0,2.6745,2.6745,2.6739,2.6737,2.6736,2.6733,2.6731,2.6731,2.6723,2.6726,2.6725,2.6724,2.6715,2.6714,2.6714,2.6713,2.6709,2.6709,2.6709,2.6709,2.6717,2.6717,0,0,0,0,0,0,2.6747,2.6745,2.6739,2.6739,2.6739,2.6733,2.6731,2.6731,2.6723,2.6721,2.6724,2.6723,2.6715,2.6714,2.6713,2.6718,2.6709,2.6709,2.6709,2.6716,2.6717,2.6717,0,0,0,0,0,0,2.6747,2.6747,2.674,2.6742,2.6741,2.6733,2.6732,2.6731,2.6729,2.6722,2.672,2.6724,2.6714,2.6714,2.6714,2.6718,2.6709,2.6708,2.6716,2.6716,2.6717,2.6729,0,0,0,0,0,0,2.6747,2.6747,2.6748,2.6742,2.6741,2.6741,2.6732,2.6731,2.6729,2.6728,2.6721,2.672,2.6714,2.6715,2.6714,2.6717,2.6708,2.6715,2.6716,2.6717,2.6728,2.6729,2.6731,0,0,0,0,0,2.6748,2.6752,2.6749,2.6748,2.6743,2.6741,2.674,2.6734,2.6729,2.6731,2.6726,2.672,2.6718,2.6715,2.6714,2.6717,2.6715,2.6716,2.6717,2.6727,2.6729,2.6731,0,0,0,0,0,0,2.6759,2.6751,2.6747,2.6749,2.6746,2.6739,2.6741,2.6736,2.6733,2.6732,2.6724,2.6723,2.6724,2.6721,2.6718,2.6722,2.6716,2.6716,2.6724,2.6726,2.6727,2.6727,2.6708,0,0,0,0,0,2.6762,2.6761,2.6754,2.6757,2.6755,2.6749,2.6748,2.6743,2.6739,2.6737,2.6733,2.6729,2.6727,2.6726,2.6724,2.6728,2.6726,2.673,2.6731,2.6732,2.6733,2.6734,2.6736,2.6719,2.6719,2.6719,0,0,2.6767,2.6763,2.6763,2.6759,2.6756,2.6756,2.6747,2.6747,2.6747,2.6737,2.6738,2.6734,2.673,2.6732,2.6732,2.6729,2.6737,2.6733,2.6734,2.6734,2.6735,2.6737,2.6738,2.672,2.672,2.6719,0,0,2.6777,2.6774,2.6775,2.6773,2.6768,2.6764,2.6764,2.6758,2.6756,2.6756,2.6749,2.6748,2.6746,2.6743,2.6741,2.6751,2.6745,2.675,2.6757,2.6759,2.676,2.6761,2.6765,2.6766,2.6751,2.6751,2.6751,0,2.6784,2.6783,2.6777,2.6777,2.6776,2.6768,2.677,2.6767,2.6762,2.6761,2.6758,2.6755,2.6751,2.6752,2.6755,2.6754,2.6754,2.6751,2.6761,2.6762,2.6763,2.6766,2.6767,2.6751,2.6751,2.6751,2.6751,0,2.6792,2.6792,2.6794,2.679,2.6789,2.679,2.6784,2.6783,2.6779,2.6775,2.6775,2.6771,2.6768,2.6768,2.6764,2.6769,2.6767,2.6762,2.6756,2.6765,2.6768,2.6769,2.6752,2.6752,2.6752,2.6752,0,0,2.6808,2.6801,2.6801,2.68,2.6795,2.6794,2.6795,2.6793,2.6792,2.679,2.679,2.6789,2.6784,2.6782,2.6778,2.6779,2.6787,2.6774,2.6774,2.6776,2.6792,2.6795,2.6797,2.6783,2.6784,2.6784,2.6792,0,2.6816,2.6817,2.6812,2.6814,2.6814,2.6807,2.6808,2.6805,2.6801,2.68,2.6797,2.6795,2.679,2.6789,2.679,2.6786,2.679,2.6785,2.6783,2.6783,2.6784,2.6798,2.6801,2.681,2.6793,2.6794,2.6794,0,2.6826,2.6824,2.6826,2.6822,2.6821,2.6822,2.682,2.6819,2.6816,2.6813,2.6811,2.6806,2.6807,2.6801,2.6802,2.6799,2.6798,2.6796,2.6796,2.6795,2.6789,2.6797,2.6812,2.6813,2.6795,2.6795,2.6795,0,2.6836,2.6834,2.6836,2.6835,2.6829,2.683,2.6828,2.6824,2.6823,2.6821,2.682,2.6818,2.6817,2.6816,2.681,2.6807,2.6811,2.6805,2.6809,2.6809,2.681,2.681,2.6824,2.681,2.681,2.681,2.681,0,2.6846,2.6848,2.6841,2.6841,2.6843,2.6837,2.6839,2.6836,2.6833,2.6833,2.6827,2.6827,2.682,2.682,2.6816,2.6817,2.6816,2.6814,2.6813,2.6814,2.6815,2.6813,2.6812,2.681,2.681,2.681,2.681,0,2.6858,2.6853,2.6854,2.6849,2.6848,2.6849,2.6845,2.6846,2.6842,2.6842,2.6842,2.6836,2.6835,2.683,2.6828,2.6825,2.6828,2.6825,2.6829,2.6828,2.6832,2.6831,2.6846,2.6847,2.6832,2.6833,2.6833,0,2.6864,2.6865,2.686,2.686,2.6858,2.6858,2.6857,2.6852,2.6851,2.6848,2.6849,2.6847,2.6846,2.6845,2.684,2.6839,2.6836,2.6841,2.6836,2.6837,2.6836,2.6836,2.6836,2.6842,2.6842,2.6843,2.6843,0,2.6875,2.6873,2.6872,2.687,2.687,2.6868,2.6866,2.6866,2.686,2.686,2.6859,2.6858,2.6856,2.6855,2.6853,2.685,2.6845,2.6845,2.6845,2.6847,2.6849,2.6847,2.6832,2.6844,2.6844,2.6844,2.6844,2.6844,2.6884,2.6885,2.6882,2.6881,2.6879,2.6878,2.6878,2.6875,2.6874,2.6872,2.6869,2.6869,2.6866,2.6863,2.6861,2.686,2.6857,2.6859,2.6859,2.6859,2.686,2.6849,2.686,2.686,2.686,2.686,2.686,0,2.6895,2.6893,2.6892,2.689,2.6889,2.6886,2.6883,2.6883,2.6883,2.6881,2.688,2.6879,2.6878,2.6874,2.6873,2.6873,2.6871,2.6873,2.6873,2.6872,2.6862,2.6862,2.6875,2.6875,2.6875,2.6875,2.6875,2.6875,2.69,2.6901,2.6899,2.69,2.6897,2.6897,2.6896,2.6895,2.6893,2.6893,2.6892,2.689,2.6887,2.6885,2.6884,2.6883,2.6883,2.6885,2.6883,2.6874,2.6873,2.6871,2.6871,2.6885,2.6885,2.6893,2.6893,2.6893]}]]